Location: ??
(35.4627°N, 139.3695°E)
Time: 05:56:09
(UTC+00:00)

Cosmos 2181 Rocket - Pass Details

Date: 25 November 2020
Orbit: 951 x 1015 km, 82.9° (Epoch: 20 January)

Event Time Altitude Azimuth Distance (km) Brightness Sun altitude
Rises 20:37:23 0° 346° (NNW) 3,676 6.7 -10.5°
Reaches altitude 10° 20:40:01 10° 340° (NNW) 2,716 6.0 -10.0°
Maximum altitude 20:45:50 44° 270° (W) 1,303 4.3 -8.9°
Drops below altitude 10° 20:51:34 10° 200° (SSW) 2,672 6.3 -7.8°
Sets 20:54:08 0° 194° (SSW) 3,610 7.1 -7.3°
